Погода в Тернополе

Погода в Тернополе : погода сейчас, прогноз погоды и архив. Всё, что Вы хотите узнать о погоде в Тернополе!

Хотите узнать прогноз погоды в Тернополе? Тогда Вам сюда: Погода в Тернополе

Поиск расширенной информации на нашем сайте:

Полезная информация:

Другие новости

Новости СМИ2

Главная страница сайта

Новости сайта

03.07.2017

Напоминаем, что на нашем специализированном сайте Метеоцентр.Азия вы можете получить высокодетализированные автоматические прогнозы погоды по пунктам России, СНГ и мира в авиационном формате (включающие направление и скорость ветра, видимость, явления погоды, количество и форму облачности, нижнюю и верхнюю границу облачности).

Рекомендуем:

Погода в Тернополе - сегодня

Время (UTC), дата Ветер
(°,м/с) 
Видим.   Явления Облачность Т
(°С)
Тd
(°С)
f(%) Тe
(°С)
Pmin
(гПа)
dP
(гПа)
Po
(мм)
O2
(г/м3)
Тmin Tmax R s Состояние
почвы
09 15.09.19 220 (ЮЗ) 10 км    3/0 верхняя 
[Ci fib]
+17 +6.3 49 +17  1025.7  -1.5  740  280           
12 15.09.19 220 (ЮЗ) 10 км    8/0 верхняя 
[Ci fib]
+19.9 +3.6 34 +21  1022.4  -2.8  738  277           
15 15.09.19 240 (ЮЗ) 10 км    9/0 верхняя 
[Ci fib]
+20.4 +0.2 26 +20  1020.1  -2.2  737  276           
18 15.09.19 230 (ЮЗ) 10 км    6/0 верхняя 
[Ci fib]
+13.9 +5 55 +14  1019.4  -1.5  735  281           
21 15.09.19 250 (З) 10 км    8/0 верхняя 
[Ci fib]
+12.2 +5.6 64 +12  1018.7  -0.9  735  282           
00 16.09.19 250 (З) 10 км    5/0 верхняя 
[Ci fib]
+11.3 +7.4 77 +11  1017.9  -0.8  734  283           
03 16.09.19 260 (З) 10 км    8/0 верхняя 
[Ci fib]
+11.6 +8.2 80 +11  1016.4  -1.4  733  282           
06 16.09.19 250 (З) 10 км    8/0 средняя, верхняя 
[Ac trans|Ci sp]
+14.2 +7.4 64 +13  1016  -0.1  733  279  +10.3  +1.6       
09 16.09.19 290 (З) 10 км    8/0 средняя, верхняя 
[Ac trans|Ci fib]
+20.7 +8.2 45 +21  1014.5  -0.6  733  273           
12 16.09.19 310 (СЗ) 10 км    8/6 1000 м кучево-дожд., средняя 
[Cb cap|Ac trans]
+22 +8.6 42 +22  1012.8  -1.5  731  271           
15 16.09.19 310 (СЗ) 10 км    9/8 1000 м кучево-дожд., средняя 
[Cb cap|Ac trans]
+18.6 +9.9 57 +21  1012.8  -0.4  731  274           
18 16.09.19 310 (СЗ) 10 км    9/6 1000 м кучево-дожд., средняя 
[Cb cap|Ac trans]
+16.4 +8 58 +16  1013  -0.1  731  276    +22.6       
21 16.09.19 250 (З) 10 км  {ливн. осадки}  9/6 1000 м кучево-дожд., средняя 
[Cb cap|Ac trans]
+15.8 +14.6 93 +25  1012.9  -0.1  731  275           
00 17.09.19 270 (З) 10 км  {ливн. осадки}  8/4 1000 м кучево-дожд., средняя 
[Cb cap|Ac trans]
+11.6 +10.5 93 +13  1013.5  731  281      0.9     
03 17.09.19 280 (З) 10 км    9/5 1000 м кучево-дожд., средняя 
[Cb cap|Ac trans]
+11.1 +9.9 92 +12  1013.4  -0.2  731  281           
06 17.09.19 300 (СЗ) 10 км    8/5 1000 м средняя 
[Sc|Ac trans]
+11.6 +8.6 82 +11  1013.6  0.3  731  281  +10.8    0.9     
09 17.09.19 290 (З) 10 км    8/4 600 м средняя 
[Sc diur, vesp|Ac As]
+14.7 +5.6 54 +14  1012.6  -0.6  731  278           
12 17.09.19 280 (З) 20000 м    8/8 1000 м 
[Sc diur, vesp]
+16 +5.5 50 +15  1010.7  -1.7  729  277           
15 17.09.19 290 (З) 20000 м    8/8 1000 м верхняя 
[Sc diur, vesp|Ci sp]
+15.4 +4.7 49 +15  1009.3  -1.4  728  277           
18 17.09.19 270 (З) 10 км    8/3 1500 м средняя 
[Sc diur, vesp|Ac As]
+12.9 +6.5 65 +12  1009.2  -0.4  728  279    +17.3       
21 17.09.19 220 (ЮЗ) 10 км    9/8 1500 м средняя 
[Sc diur, vesp|Ac As]
+11.8 +6.4 69 +11  1007.8  -1.5  727  280           
00 18.09.19 270 (З) 10 км    3/0 средняя, верхняя 
[Ac trans|Ci sp]
+12 +5.7 65 +10  1006.9  -0.8  726  279           
03 18.09.19 280 (З) 10  10 км  {ливн. осадки}  9/8 1000 м средняя 
[Sc|Ac As]
+8.4 +3.1 69 +6  1009.3  1.8  728  284           
06 18.09.19 280 (З) 12  20000 м  {ливн. осадки}  3/1 300 м средняя 
[Sc diur, vesp|Ac trans]
+9 +1.6 60 +6  1010.5  1.2  729  284  +6.9    0.0     
09 18.09.19 280 (З) 14  20000 м    9/6 1000 м кучево-дожд., средняя 
[Cb cap|Ac trans]
+10.4 +0.2 49 +7  1012.3  1.9  730  283           
Время (UTC), дата Ветер
(°,м/с) 
Видим.   Явления Облачность Т
(°С)
Тd
(°С)
f(%) Тe
(°С)
Pmin
(гПа)
dP
(гПа)
Po
(мм)
O2
(г/м3)
Тmin Tmax R s Состояние
почвы

Для получения пояснительной информации подведите курсор к названию столбца.

ПОГОДА в Тернополе - архив

Всё, что Вы хотите узнать о погоде в Тернополе - удобно и подробно!

Выберите нужную дату (начиная с 1 января 2018* года) и нажмите кнопку "Найти".
Будут отображены архивные сводки погоды по пункту Тернополь, начиная с указанной даты.


Отображать данные в формате CSV (для использования в таблицах Excel)


Внимание! Наш архив погоды предназначен исключительно для личного некоммерческого использования в познавательных целях. Если Вам необходимы официальные справки о состоянии погоды (для производственных, юридических, коммерческих и т.п. целей), обращайтесь в органы Росгидромета.

*Примечание: данная дата относится к архиву по метеостанциям СССР (Россия, СНГ, Балтия).
Архив по метеостанциям Зарубежной Европы и Азии (кроме Китая) хранится 10 дней, по другим регионам земного шара (Китай, Африка, Америка, Австралия, Океания) - 1 день.

Тернополь - район местоположения метеостанции


Название, широта, долгота, высота метеостанции:
Тернополь 49.5°ш. 25.7°д. 329 м над ур. моря [Украина]

Дополнительная информация

В oтличие oт бoльшинства пoгoдных сайтoв мы публикуем пoдрoбную метеoинфoрмацию в детальнoм прoфессиoнальнoм фoрмате.

Характеристики температуры и влажнoсти вoздуха измеряются на высoте 2 м в тени вдали oт зданий и деревьев.
Скoрoсть ветра измеряется на высoте 10 м (на урoвне рoста челoвека скoрoсть ветра ниже в 1.5-2 раза). Если метеoстанция нахoдится в гoрoде или в лесу, тo скoрoсть ветра занижена на 2-4 м/с пo сравнению с oткрытым местoм. Скoрoсть ветра над акватoриями крупных рек и oзёр, а также на вершинах хoлмoв на 2-5 м/с выше, чем в oбычных услoвиях.
Атмoсфернoе давление в разных тoчках местнoсти мoжет значительнo oтличаться oт давления на метеoстанции, в зависимoсти oт услoвий рельефа (при пoдъёме на 10 м давление пoнижается примернo на 1 мм рт.ст.).